Simultaneous Nadir Overpasses (SNOs) Predictions

Prediction of SNOs between GOES-14 and AQUA Satellite Orbit:

Table of predicted SNOs for the next 14.0 days since TLE Epoch: 5/3/2019
Index Date Time (GOES-14) GOES-14 Lat,Lon AQUA Lat,Lon Distance(km) Time Diff (sec)
1 05/04/2019 20:24:13 -0.11,-104.42 0.27,-102.48 219.26 80
2 05/05/2019 08:45:29 0.10,-104.38 0.79,-107.65 372.03 80
3 05/07/2019 08:33:17 0.10,-104.38 0.16,-104.69 35.47 80
4 05/09/2019 08:23:45 0.10,-104.38 -0.47,-101.73 300.69 80
5 05/09/2019 20:45:09 -0.09,-104.43 -0.64,-106.92 284.24 80
6 05/11/2019 20:30:17 -0.09,-104.42 -0.00,-103.97 51.60 80
7 05/13/2019 20:18:05 -0.10,-104.42 0.64,-101.01 387.72 80
8 05/14/2019 08:39:20 0.08,-104.36 0.47,-106.17 205.64 80
9 05/16/2019 08:29:48 0.08,-104.36 -0.17,-103.21 130.93 80
10 05/16/2019 20:51:12 -0.07,-104.44 -0.94,-108.40 451.67 80




NCC Satellite Simultaneous Nadir Overpasses (SNOs) Prediction Service
